International Skating Union - Official Site

Essent ISU World Cup Salt lake City
November 15-17, 2013

Draw | Lap Times | Index | World Cup

Referee: Dan  IMMERFALL  (USA)
Starter: Bruce  LANSER  (USA)
StartTime: EndTime: Air Temp: Ice Temp: Humidity:
16:21 16:49 18 ℃ -8 ℃ 28
Result Team Pursuit Ladies
Rankings as of Nov 17 2013 4:54PM
Rank: No.: Team: Nation: Time: Behind: Points:
Total 11
1 1 Netherlands (293) Ireen Wüst (283) Linda de Vries (282) Antoinette de Jong NED NED 2:56.020.5 - 18.39 - (18.3)
1.0 - 32.20 - (13.8)
1.5 - 45.91 - (13.7)
2.0 - 59.79 - (13.8)
2.5 - 1:13.79 - (14.0)
3.0 - 1:28.12 - (14.3)
3.5 - 1:42.48 - (14.3)
4.0 - 1:56.92 - (14.4)
4.5 - 2:11.74 - (14.8)
5.0 - 2:26.36 - (14.6)
5.5 - 2:41.08 - (14.7)
6.0 - 2:56.02 - (14.9)
100
2 4 Canada (214) Christine Nesbitt (216) Brittany Schussler (208) Kali Christ CAN CAN 2:56.900.5 - 19.13 - (19.1)
1.0 - 32.98 - (13.8)
1.5 - 46.57 - (13.5)
2.0 - 1:00.54 - (13.9)
2.5 - 1:14.39 - (13.8)
3.0 - 1:28.54 - (14.1)
3.5 - 1:43.13 - (14.5)
4.0 - 1:57.58 - (14.4)
4.5 - 2:12.16 - (14.5)
5.0 - 2:27.16 - (15.0)
5.5 - 2:42.01 - (14.8)
6.0 - 2:56.90 - (14.8)
0.88 80
3 8 USA (325) Heather Richardson (318) Brittany Bowe (327) Jilleanne Rookard USA USA 2:57.090.5 - 18.67 - (18.6)
1.0 - 32.22 - (13.5)
1.5 - 45.43 - (13.2)
2.0 - 58.96 - (13.5)
2.5 - 1:12.81 - (13.8)
3.0 - 1:27.05 - (14.2)
3.5 - 1:41.53 - (14.4)
4.0 - 1:56.03 - (14.5)
4.5 - 2:11.15 - (15.1)
5.0 - 2:26.07 - (14.9)
5.5 - 2:41.39 - (15.3)
6.0 - 2:57.09 - (15.7)
1.07 70
4 2 Japan (261) Nana Takagi (259) Maki Tabata (254) Ayaka Kikuchi JPN JPN 2:57.260.5 - 18.88 - (18.8)
1.0 - 33.16 - (14.2)
1.5 - 47.15 - (13.9)
2.0 - 1:00.92 - (13.7)
2.5 - 1:14.93 - (14.0)
3.0 - 1:29.07 - (14.1)
3.5 - 1:43.56 - (14.4)
4.0 - 1:57.92 - (14.3)
4.5 - 2:12.54 - (14.6)
5.0 - 2:27.07 - (14.5)
5.5 - 2:42.06 - (14.9)
6.0 - 2:57.26 - (15.1)
1.24 60
5 6 Russia (307) Olga Graf (309) Yekaterina Lobysheva (312) Yuliya Skokova RUS RUS 2:57.840.5 - 18.89 - (18.8)
1.0 - 32.83 - (13.9)
1.5 - 46.75 - (13.9)
2.0 - 1:00.97 - (14.2)
2.5 - 1:15.45 - (14.4)
3.0 - 1:29.81 - (14.3)
3.5 - 1:44.20 - (14.3)
4.0 - 1:58.76 - (14.5)
4.5 - 2:13.20 - (14.4)
5.0 - 2:27.86 - (14.6)
5.5 - 2:42.94 - (15.0)
6.0 - 2:57.84 - (14.8)
1.82 50
6 3 Poland (298) Katarzyna Bachleda-Curus (301) Luiza Zlotkowska (299) Natalia Czerwonka POL POL 2:58.010.5 - 18.92 - (18.9)
1.0 - 33.05 - (14.1)
1.5 - 46.96 - (13.9)
2.0 - 1:01.10 - (14.1)
2.5 - 1:15.17 - (14.0)
3.0 - 1:29.35 - (14.1)
3.5 - 1:43.90 - (14.5)
4.0 - 1:58.34 - (14.4)
4.5 - 2:12.79 - (14.4)
5.0 - 2:27.70 - (14.9)
5.5 - 2:42.81 - (15.1)
6.0 - 2:58.01 - (15.1)
1.99 45
7 5 Korea (271) Bo-Reum Kim (275) Seon-Yeong Noh (276) Do-Young Park KOR KOR 2:58.320.5 - 19.19 - (19.1)
1.0 - 33.21 - (14.0)
1.5 - 47.20 - (13.9)
2.0 - 1:01.26 - (14.0)
2.5 - 1:15.72 - (14.4)
3.0 - 1:30.21 - (14.4)
3.5 - 1:44.65 - (14.4)
4.0 - 1:59.19 - (14.5)
4.5 - 2:13.86 - (14.6)
5.0 - 2:28.33 - (14.4)
5.5 - 2:43.11 - (14.7)
6.0 - 2:58.32 - (15.2)
2.30 40
8 7 Norway (297) Ida Njåtun (294) Hege Bøkko (296) Mari Hemmer NOR NOR 2:59.470.5 - 19.17 - (19.1)
1.0 - 33.45 - (14.2)
1.5 - 47.63 - (14.1)
2.0 - 1:02.02 - (14.3)
2.5 - 1:16.56 - (14.5)
3.0 - 1:31.33 - (14.7)
3.5 - 1:45.98 - (14.6)
4.0 - 2:00.61 - (14.6)
4.5 - 2:15.53 - (14.9)
5.0 - 2:30.16 - (14.6)
5.5 - 2:44.74 - (14.5)
6.0 - 2:59.47 - (14.7)
3.45 35
9 9 China (228) Xin Zhao (222) Jing Liu (221) Qishi Li CHN CHN 3:00.210.5 - 18.57 - (18.5)
1.0 - 32.66 - (14.0)
1.5 - 46.69 - (14.0)
2.0 - 1:00.85 - (14.1)
2.5 - 1:15.15 - (14.3)
3.0 - 1:29.72 - (14.5)
3.5 - 1:44.42 - (14.7)
4.0 - 1:59.28 - (14.8)
4.5 - 2:14.56 - (15.2)
5.0 - 2:30.10 - (15.5)
5.5 - 2:45.15 - (15.0)
6.0 - 3:00.21 - (15.0)
4.19 30
10 10 Italy (249) Francesca Lollobrigida (247) Francesca Bettrone (250) Paola Simionato ITA ITA 3:00.830.5 - 18.97 - (18.9)
1.0 - 33.00 - (14.0)
1.5 - 47.16 - (14.1)
2.0 - 1:01.38 - (14.2)
2.5 - 1:15.91 - (14.5)
3.0 - 1:30.52 - (14.6)
3.5 - 1:45.12 - (14.6)
4.0 - 2:00.15 - (15.0)
4.5 - 2:15.41 - (15.2)
5.0 - 2:30.75 - (15.3)
5.5 - 2:45.80 - (15.0)
6.0 - 3:00.83 - (15.0)
4.81 25
11 11 Germany (242) Claudia Pechstein (240) Bente Kraus (236) Jennifer Bay GER GER 3:00.850.5 - 19.20 - (19.1)
1.0 - 33.63 - (14.4)
1.5 - 48.01 - (14.3)
2.0 - 1:02.40 - (14.3)
2.5 - 1:16.78 - (14.3)
3.0 - 1:31.48 - (14.7)
3.5 - 1:46.10 - (14.6)
4.0 - 2:00.81 - (14.7)
4.5 - 2:15.85 - (15.0)
5.0 - 2:30.78 - (14.9)
5.5 - 2:45.81 - (15.0)
6.0 - 3:00.85 - (15.0)
4.83 21